(318660) = 2001 PO54 = 2005 NE18

Discovered at Mount Lemmon on 2005-07-04 by Mt. Lemmon Survey.

Orbit

Orbit type: Main Belt

Note: WebGL enabled browser required.

epoch2024-03-31.0
epoch JD2460400.5
perihelion date2022-03-03.81499
perihelion JD2459642.31499
argument of perihelion (°)57.67610
ascending node (°)279.44347
inclination (°)2.42584
eccentricity0.1275877
perihelion distance (AU)2.2274777
Tisserand w.r.t. Jupiter3.4
ΔV w.r.t. Earth (km/sec)9.4
semimajor axis (AU)2.5532396
mean anomaly (°)183.16466
mean daily motion (°/day)0.24158310
aphelion distance (AU)2.879
period (years)4.08
P-vector [x]0.92057125
P-vector [y]-0.37106696
P-vector [z]-0.12189293
Q-vector [x]0.38833656
Q-vector [y]0.83621833
Q-vector [z]0.38721263
absolute magnitude17.08
phase slope0.15
uncertainty0
referenceMPEC 2024-F50
observations used217
oppositions14
arc length (days)9678
first opposition used1997
last opposition used2024
residual rms (arc-secs)0.78
perturbers coarse indicatorM-v
perturbers precise indicator003Ek
first observation date used1997-09-05.0
last observation date used2024-03-06.0
computer nameMPCLINUX
JD of orbit computation2456494.382431
perihelion JD uncertainty (days)2.1543E-04
argument of perihelion uncertainty (°)1.9682E-04
ascending node uncertainty (°)1.9213E-04
inclination uncertainty (°)1.0643E-05
eccentricity uncertainty 2.0705E-07
perihelion distance uncertainty (AU)5.4737E-07
Minimum Orbit Intersection Distances (in AU)
for orbit epoch: 2460400.5, reference: E2024-F50
Mercury1.82836
Venus1.50446
Earth1.21897
Mars0.85395
Jupiter2.45953
Saturn6.30513
Uranus15.5669
Neptune27.3478

Observations

222 total observations over interval: 1997 09 05.89252 – 2024 03 06.354377
These data are available for download (format description).

Date (UT) J2000 RA J2000 Dec Magn Location Ref
1997 09 05.89252 22 10 25.43 -07 19 32.5 20.7 V 910 – Caussols-ODAS MPS 138013
1997 09 05.91794 22 10 24.17 -07 19 38.7 20.6 V 910 – Caussols-ODAS MPS 138013
1997 09 05.94132 22 10 22.99 -07 19 44.6 20.7 V 910 – Caussols-ODAS MPS 138013
2001 08 14.38122 21 26 51.95 -11 58 26.4 20.5   608 – Haleakala-AMOS MPS 34564
2001 08 14.39150 21 26 51.35 -11 58 28.4 20.3   608 – Haleakala-AMOS MPS 34564
2001 08 14.40272 21 26 50.73 -11 58 30.1 20.2   608 – Haleakala-AMOS MPS 34564
2001 08 16.26999 21 25 10.77 -12 04 32.5 19.1   704 – Lincoln Laboratory ETS, New Mexico MPS 34564
2001 08 16.28227 21 25 10.12 -12 04 33.4 20.1   704 – Lincoln Laboratory ETS, New Mexico MPS 34564
2001 08 16.29453 21 25 09.39 -12 04 36.8 19.6   704 – Lincoln Laboratory ETS, New Mexico MPS 34564
2005 06 27.44680 20 55 56.93 -16 07 08.7 19.7   644 – Palomar Mountain/NEAT MPS 138013
2005 06 27.45905 20 55 56.64 -16 07 08.5 20.0   644 – Palomar Mountain/NEAT MPS 138013
2005 06 27.46931 20 55 56.41 -16 07 08.4 20.2   644 – Palomar Mountain/NEAT MPS 138013
2005 07 04.37050 20 52 51.02 -16 08 32.9 19.7 V G96 – Mt. Lemmon Survey MPS 137533
2005 07 04.37845 20 52 50.77 -16 08 32.8 19.6 V G96 – Mt. Lemmon Survey MPS 137533
2005 07 04.38639 20 52 50.48 -16 08 33.0 19.8 V G96 – Mt. Lemmon Survey MPS 137533
2005 07 07.38745 20 51 05.35 -16 10 42.6 20.5 V 691 – Steward Observatory, Kitt Peak-Spacewatch MPS 137533
2005 07 07.40488 20 51 04.65 -16 10 43.3 20.2 V 691 – Steward Observatory, Kitt Peak-Spacewatch MPS 137533
2005 07 07.42230 20 51 03.93 -16 10 44.1 20.1 V 691 – Steward Observatory, Kitt Peak-Spacewatch MPS 137533
2005 07 15.38756 20 45 23.18 -16 20 25.5 19.7 V G96 – Mt. Lemmon Survey MPS 138013
2005 07 15.39719 20 45 22.68 -16 20 26.1 19.6 V G96 – Mt. Lemmon Survey MPS 138013
2005 07 15.40686 20 45 22.21 -16 20 27.3 19.6 V G96 – Mt. Lemmon Survey MPS 138013
2005 07 15.41651 20 45 21.74 -16 20 28.2 20.1 V G96 – Mt. Lemmon Survey MPS 138013
2005 07 30.56706 20 31 55.38 -16 48 56.6 19.5 V E12 – Siding Spring Survey MPS 138910
2005 07 30.57682 20 31 54.84 -16 48 57.7 19.6 V E12 – Siding Spring Survey MPS 138910
2005 07 30.58659 20 31 54.26 -16 48 58.8 19.8 V E12 – Siding Spring Survey MPS 138910
2005 07 30.59633 20 31 53.61 -16 49 00.7 19.7 V E12 – Siding Spring Survey MPS 138910
2005 09 30.09602 20 13 33.02 -17 26 05.4 20.9 V G96 – Mt. Lemmon Survey MPS 144005
2005 09 30.10044 20 13 33.16 -17 26 04.9 21.0 V G96 – Mt. Lemmon Survey MPS 144005
2005 09 30.10486 20 13 33.31 -17 26 04.7 20.6 V G96 – Mt. Lemmon Survey MPS 144005
2005 09 30.10927 20 13 33.45 -17 26 03.7 20.4 V G96 – Mt. Lemmon Survey MPS 144005
2008 05 03.19976 11 27 46.08 -00 07 53.6 21.4 V G96 – Mt. Lemmon Survey MPS 286907
2008 05 03.20586 11 27 46.00 -00 07 53.1 21.4 V G96 – Mt. Lemmon Survey MPS 286907
2008 05 03.21214 11 27 45.93 -00 07 52.0 21.8 V G96 – Mt. Lemmon Survey MPS 286907
2008 05 03.21826 11 27 45.86 -00 07 50.6 22.0 V G96 – Mt. Lemmon Survey MPS 286907
2009 06 22.35124 20 00 40.82 -20 03 27.2 20.2 V G96 – Mt. Lemmon Survey MPS 289011
2009 06 22.36146 20 00 40.42 -20 03 27.8 20.1 V G96 – Mt. Lemmon Survey MPS 289011
2009 06 22.37159 20 00 40.06 -20 03 27.5 19.9 V G96 – Mt. Lemmon Survey MPS 289011
2009 06 22.38182 20 00 39.67 -20 03 27.7 20.0 V G96 – Mt. Lemmon Survey MPS 289011
2009 06 28.442718 19 56 34.410 -20 06 27.69 20.23 r F51 – Pan-STARRS 1, Haleakala MPS 291737
2009 06 28.452536 19 56 33.949 -20 06 28.38 20.31 r F51 – Pan-STARRS 1, Haleakala MPS 291737
2009 07 20.60053 19 36 32.36 -20 26 31.8 19.5 V E12 – Siding Spring Survey MPS 289829
2009 07 20.60824 19 36 31.82 -20 26 32.9 19.5 V E12 – Siding Spring Survey MPS 289829
2009 07 20.61588 19 36 31.42 -20 26 33.4 19.7 V E12 – Siding Spring Survey MPS 289829
2009 07 20.62368 19 36 30.92 -20 26 35.8 18.7 V E12 – Siding Spring Survey MPS 289829
2009 07 20.63138 19 36 30.56 -20 26 35.4 18.7 V E12 – Siding Spring Survey MPS 289829
2010 12 13.37373 05 27 29.70 +24 25 42.3 19.6 V G96 – Mt. Lemmon Survey MPS 358877
2010 12 13.37899 05 27 29.30 +24 25 41.7 19.9 V G96 – Mt. Lemmon Survey MPS 358877
2010 12 13.38426 05 27 28.98 +24 25 41.0 19.7 V G96 – Mt. Lemmon Survey MPS 358877
2010 12 13.38942 05 27 28.58 +24 25 42.4 18.9 V G96 – Mt. Lemmon Survey MPS 358877
2012 02 16.57709 11 49 31.548 -02 25 57.90 21.2 i F51 – Pan-STARRS 1, Haleakala MPS 413009
2012 02 16.58772 11 49 31.152 -02 25 56.20 21.3 i F51 – Pan-STARRS 1, Haleakala MPS 413009
2012 03 01.264225 11 39 43.44 -01 35 03.6 22.5 g 309 – Cerro Paranal MPS 804646
2012 03 01.266829 11 39 43.33 -01 35 02.9 22.4 g 309 – Cerro Paranal MPS 804646
2012 03 01.269398 11 39 43.20 -01 35 02.2 22.9 g 309 – Cerro Paranal MPS 804646
2012 03 01.271991 11 39 43.05 -01 35 01.4 23.3 g 309 – Cerro Paranal MPS 804646
2012 03 01.274549 11 39 42.93 -01 35 00.7 22.4 g 309 – Cerro Paranal MPS 804646
2012 03 13.25624 11 29 25.11 -00 34 42.2 20.8 V G96 – Mt. Lemmon Survey MPS 417171
2012 03 13.26557 11 29 24.64 -00 34 39.2 20.8 V G96 – Mt. Lemmon Survey MPS 417171
2012 03 13.27487 11 29 24.18 -00 34 36.4 20.6 V G96 – Mt. Lemmon Survey MPS 417171
2012 03 13.28413 11 29 23.64 -00 34 33.0 20.9 V G96 – Mt. Lemmon Survey MPS 417171
2012 03 20.36416 11 23 12.000 +00 04 14.78 21.7 w F51 – Pan-STARRS 1, Haleakala MPS 418394
2012 03 20.37878 11 23 11.226 +00 04 19.52 21.5 w F51 – Pan-STARRS 1, Haleakala MPS 418394
2012 03 20.39342 11 23 10.454 +00 04 24.40 21.4 w F51 – Pan-STARRS 1, Haleakala MPS 418394
2012 03 29.30420 11 15 53.78 +00 52 21.3 22.2 V G96 – Mt. Lemmon Survey MPS 420221
2012 03 29.30947 11 15 53.56 +00 52 22.6 21.4 V G96 – Mt. Lemmon Survey MPS 420221
2012 03 29.31472 11 15 53.24 +00 52 24.1 21.1 V G96 – Mt. Lemmon Survey MPS 420221
2012 03 29.31993 11 15 53.06 +00 52 26.4 21.1 V G96 – Mt. Lemmon Survey MPS 420221
2013 07 03.43892 18 50 08.513 -22 48 44.19 19.8 g F51 – Pan-STARRS 1, Haleakala MPS 471762
2013 07 03.44911 18 50 07.866 -22 48 44.10 19.9 g F51 – Pan-STARRS 1, Haleakala MPS 471762
2014 11 29.48078 04 52 30.18 +24 24 47.3 20.2 V G96 – Mt. Lemmon Survey MPS 551341
2014 11 29.48269 04 52 30.06 +24 24 46.9 19.9 V G96 – Mt. Lemmon Survey MPS 551341
2014 11 29.48459 04 52 29.92 +24 24 46.7 20.1 V G96 – Mt. Lemmon Survey MPS 551341
2014 11 29.48651 04 52 29.82 +24 24 46.4 20.1 V G96 – Mt. Lemmon Survey MPS 551341
2014 12 12.18372 04 39 04.09 +23 49 16.6 19.7 V G96 – Mt. Lemmon Survey MPS 552935
2014 12 12.18884 04 39 03.76 +23 49 15.3 19.2 V G96 – Mt. Lemmon Survey MPS 552935
2014 12 12.19395 04 39 03.44 +23 49 14.3 18.9 V G96 – Mt. Lemmon Survey MPS 552935
2014 12 12.19907 04 39 03.15 +23 49 14.1 19.2 V G96 – Mt. Lemmon Survey MPS 552935
2014 12 13.31736 04 37 55.219 +23 45 52.78 20.4 w F51 – Pan-STARRS 1, Haleakala MPS 552935
2014 12 13.33008 04 37 54.430 +23 45 50.53 20.6 w F51 – Pan-STARRS 1, Haleakala MPS 552935
2014 12 24.22772 04 27 58.53 +23 12 58.6 20.6 V G96 – Mt. Lemmon Survey MPS 559925
2014 12 24.23231 04 27 58.31 +23 12 58.3 20.1 V G96 – Mt. Lemmon Survey MPS 559925
2014 12 24.23690 04 27 58.12 +23 12 56.8 20.3 V G96 – Mt. Lemmon Survey MPS 559925
2014 12 24.24148 04 27 57.87 +23 12 55.7 20.9 V G96 – Mt. Lemmon Survey MPS 559925
2018 11 05.35243 04 22 24.78 +24 10 50.3 20.6 G G96 – Mt. Lemmon Survey MPS 936398
2018 11 05.36099 04 22 24.34 +24 10 48.9 20.4 G G96 – Mt. Lemmon Survey MPS 936398
2018 11 05.36670 04 22 24.05 +24 10 48.0 21.0 G G96 – Mt. Lemmon Survey MPS 936398
2018 11 05.37634 04 22 23.57 +24 10 46.0   G96 – Mt. Lemmon Survey MPS 936398
2018 11 08.28968 04 19 53.30 +24 03 57.6 20.5 G G96 – Mt. Lemmon Survey MPS 938581
2018 11 08.29484 04 19 52.98 +24 03 56.7 20.8 G G96 – Mt. Lemmon Survey MPS 938581
2018 11 08.30002 04 19 52.72 +24 03 56.1 20.0 G G96 – Mt. Lemmon Survey MPS 938581
2018 11 08.30517 04 19 52.43 +24 03 55.7 20.1 G G96 – Mt. Lemmon Survey MPS 938581
2018 11 09.56412 04 18 43.873 +24 00 44.00 20.4 w F52 – Pan-STARRS 2, Haleakala MPS 940163
2018 11 09.57630 04 18 43.178 +24 00 42.01 20.3 w F52 – Pan-STARRS 2, Haleakala MPS 940163
2018 11 09.58848 04 18 42.489 +24 00 40.14 20.1 w F52 – Pan-STARRS 2, Haleakala MPS 940163
2018 11 09.79347 04 18 31.26 +24 00 07.0 20.8 R D29 – Purple Mountain Observatory, XuYi Station MPS 936398
